Regional Weather Roundup
Issued by NWS

Home | Current Version | Previous Version | Text Only | Print | Product List | Glossary On
Versions: 1 2 3 4 5 6 7 8 9 10 11 12 13 14 15 16 17 18 19 20 21 22 23 24 25 26 27 28 29 30 31 32 33 34 35 36 37 38 39 40 41 42 43 44 45 46 47 48 49 50
000
ASUS44 KOUN 131710
RWROK

WEATHER ROUNDUP FOR OKLAHOMA
NATIONAL WEATHER SERVICE NORMAN OK
1100 AM CST SAT FEB 13 2016

NOTE: "FAIR" INDICATES FEW OR NO CLOUDS BELOW 12,000 FEET WITH NO
      SIGNIFICANT WEATHER AND/OR OBSTRUCTIONS TO VISIBILITY.

OKZ001>007-009>012-014-015-017-131800-
NORTHWEST OKLAHOMA AND THE PANHANDLE

CITY           SKY/WX    TMP DP  RH WIND       PRES   REMARKS
GAGE           SUNNY     38  25  59 S17       30.33F WCI  28
GUYMON         SUNNY     44  31  60 S20G26    30.18F
ENID/WOODRING  MOSUNNY   39  18  41 E9        30.42F WCI  33
$$

OKZ016-021>023-033>039-044-045-131800-
SOUTHWEST OKLAHOMA

CITY           SKY/WX    TMP DP  RH WIND       PRES   REMARKS
LAWTON/REGL    SUNNY     48  30  49 SE13      30.38F
LAWTON/FT SILL SUNNY     48  30  49 SE8       30.36F
FREDERICK      SUNNY     44  31  60 SE8       30.35F
CLINTON        SUNNY     40  27  59 SE9       30.37F WCI  34
HOBART         SUNNY     42  30  62 SE7       30.38F
ALTUS AFB      SUNNY     44  28  51 SE8       30.37F
$$

OKZ018>020-024>031-131800-
CENTRAL OKLAHOMA

CITY           SKY/WX    TMP DP  RH WIND       PRES   REMARKS
OKLAHOMA CITY  MOSUNNY   42  23  46 SE8       30.40F
OKC/WILEY POST SUNNY     40  21  46 E9        30.41F WCI  34
OKC/TINKER AFB SUNNY     42  21  44 E9        30.39F
STILLWATER     SUNNY     39  14  36 E9        30.44F WCI  33
GUTHRIE        SUNNY     39  18  42 SE8       30.42F WCI  33
$$

OKZ008-013-054>072-131800-
NORTHEAST OKLAHOMA

CITY           SKY/WX    TMP DP  RH WIND       PRES   REMARKS
TULSA          MOSUNNY   39  12  33 E6        30.47F WCI  35
TULSA/JONES    MOSUNNY   39  14  36 E8        30.48F WCI  33
PONCA CITY     SUNNY     35   5  28 E13       30.46F WCI  26
BARTLESVILLE   SUNNY     35   3  26 E9        30.51F WCI  28
MUSKOGEE       SUNNY     44  21  40 E12       30.48F
$$

OKZ032-040>043-046>053-073>077-131800-
SOUTH CENTRAL/SOUTHEAST OKLAHOMA

CITY           SKY/WX    TMP DP  RH WIND       PRES   REMARKS
ARDMORE/DWNTWN SUNNY     52  28  40 S10G16    30.40F
MCALESTER      MOSUNNY   48  27  44 VRB7      30.44F
$$




USA.gov is the U.S. government's official web portal to all federal, state and local government web resources and services.